Location: Unspecified
(0.0000°N, 0.0000°E)
Time: 13:20:57
(UTC+00:00)

LightSail 2 - Pass Details

Date: 13 September 2019
Orbit: 699 x 732 km, 24.0° (Epoch: 17 September)

Event Time Altitude Azimuth Distance (km) Brightness Sun altitude
Rises 19:22:00 0° 250° (WSW) 3,124 9.6 -21.5°
Reaches altitude 10° 19:26:28 10° 215° (SW) 2,195 8.0 -22.6°
Maximum altitude 19:27:55 11° 199° (SSW) 2,119 7.7 -22.9°
Drops below altitude 10° 19:29:22 10° 182° (S) 2,189 7.6 -23.3°
Enters shadow 19:30:20 - 172° (S) 2,314 7.7 -23.6°
